Regional Weather Roundup
Issued by NWS

Home | Current Version | Previous Version | Graphics & Text | Print | Product List | Glossary On
Versions: 1 2 3 4 5 6 7 8 9 10 11 12 13 14 15 16 17 18 19 20 21 22 23 24 25 26 27 28 29 30 31 32 33 34 35 36 37 38 39 40 41 42 43 44 45 46 47 48 49 50
000
ASUS43 KIND 252309
RWRIN

WEATHER ROUNDUP FOR INDIANA
NATIONAL WEATHER SERVICE INDIANAPOLIS IN
700 PM EDT MON JUL 25 2016

NOTE: "FAIR" INDICATES FEW OR NO CLOUDS BELOW 12,000 FEET WITH NO
SIGNIFICANT WEATHER AND/OR OBSTRUCTIONS TO VISIBILITY.

* - STATION DOES NOT REPORT WEATHER SUCH AS PRECIPITATION OR FOG.

+ - STATION NOT QUALITY CONTROLLED BY THE NATIONAL WEATHER SERVICE.
    USE DATA WITH CAUTION...ESPECIALLY DEWPOINT AND RELATIVE
    HUMIDITY OBSERVATIONS.

INZ001>003-010>013-019-020-260000-
NORTHWEST INDIANA

CITY           SKY/WX    TMP DP  RH WIND       PRES   REMARKS
GARY /AIRPORT/ PTSUNNY   84  64  51 NE9       29.99S
KNOX *+        MOSUNNY   79  54  41 N5        30.00R
LA PORTE +     PTSUNNY   83  64  52 NE7       30.01S
MICHIGAN CITY+ CLOUDY    81  59  47 N3        30.01R
MONTICELLO +   CLOUDY    82  68  61 N3        29.98F
RENSSELAER +   CLOUDY    81  70  69 NE3       29.99F
VALPARAISO     MOSUNNY   81  64  56 NE6       30.00S

$$

LMZ046-743>745-260000-
SOUTHERN LAKE MICHIGAN

STATION/POSITION TIME  TEMP    WIND        PRES    WAVE
                       AIR SEA DIR/SP/G            HT
                 (UTC) (F)     (DEG/KT/KT) (MB)    (FT)
BURNS HARBOR     2200   79      70/  7/  9 1015.9S
MICHIGAN CITY    2200   76      20/  5/  5   N/A
5NW MICH CITY    2300   76 76  100/  4/  6   N/A     1

$$

INZ004-005-014>016-021>024-260000-
NORTH CENTRAL INDIANA

CITY           SKY/WX    TMP DP  RH WIND       PRES   REMARKS
ELKHART        MOSUNNY   82  68  61 W9        30.00R
GOSHEN         SUNNY     83  63  50 NW12      29.99R
LOGANSPORT +   CLOUDY    79  68  69 NW3       29.99F
PERU/GRISSOM   CLOUDY    83  69  62 N8        29.97F
ROCHESTER +    CLOUDY    82  68  61 NW12G20   30.00S
SOUTH BEND     MOSUNNY   81  61  50 NW8       30.01R
WARSAW +       MOSUNNY   81  63  54 NW8       30.00R

$$

INZ006>009-017-018-025>027-260000-
NORTHEAST INDIANA

CITY           SKY/WX    TMP DP  RH WIND       PRES   REMARKS
ANGOLA *+        N/A     84  81  89 W9        29.97S HX  98
AUBURN +       MOSUNNY   86  55  35 NW9       29.98S
FORT WAYNE     PTSUNNY   84  67  56 W7        29.97S
HUNTINGTON +   MOSUNNY  N/A N/A N/A MISG        N/A

$$

INZ028-029-035-036-043>045-051>053-260000-
WEST CENTRAL INDIANA

CITY           SKY/WX    TMP DP  RH WIND       PRES   REMARKS
CRAWFORDSVL +  CLOUDY    83  72  69 NW6       29.98F
GREENCASTLE +  CLOUDY    82  77  83 N6        29.99F
LAFAYETTE      CLOUDY    84  71  65 N6        29.97F
TERRE HAUTE    CLOUDY    85  74  69 N5        29.97F

$$

INZ030>032-037>040-046>048-054>057-064-065-260000-
CENTRAL INDIANA

CITY           SKY/WX    TMP DP  RH WIND       PRES   REMARKS
COLUMBUS       SUNNY     84  77  79 NW5       29.97F
INDIANAPOLIS   CLOUDY    85  72  65 NW8       29.98F
-EAGLE CREEK   SUNNY     85  73  67 NW6       29.97F
KOKOMO *+      CLOUDY    84  68  58 N7        29.98F
MARION +       MOSUNNY   82  69  65 N3        29.99S
MT COMFORT *+  PTSUNNY   84  73  70 NW7       29.98F
SHELBYVILLE    PTSUNNY   87  72  60 W8        29.96F
ZIONSVILLE +   MOSUNNY   80  74  80 N3        29.99F

$$

INZ033-034-041-042-049-050-058-059-260000-
EAST CENTRAL INDIANA

CITY           SKY/WX    TMP DP  RH WIND       PRES   REMARKS
MUNCIE         MOSUNNY   85  71  63 NW12      29.98S

$$

INZ060-061-067>069-081>083-085>088-260000-
SOUTHWEST INDIANA

CITY           SKY/WX    TMP DP  RH WIND       PRES   REMARKS
EVANSVILLE     MOSUNNY   81  74  79 E3        29.97R
HUNTINGBURG *+ CLOUDY    79  73  83 E8        29.98S
WASHINGTON +   CLOUDY    82  78  88 MISG      29.96F

$$

INZ062-063-066-070>080-084-089>092-260000-
SOUTH CENTRAL AND SOUTHEAST INDIANA

CITY           SKY/WX    TMP DP  RH WIND       PRES   REMARKS
BLOOMINGTON    CLOUDY    85  73  67 VRB3      29.98F
MADISON *+     CLOUDY    79  73  83 S5        30.01R

$$





USA.gov is the U.S. government's official web portal to all federal, state and local government web resources and services.